Volver al catálogo

XINGWANG JISHU SW 01-02

ActivoComunicacionesPO
NORAD 57289·PAYLOAD·🇨🇳 China
Este nombre de satélite aún no ha sido confirmado por fuentes oficiales.

Lanzado Jul 9, 2023 desde Jiuquan Satellite Launch Center

Loading…

Próximos Pases (próximas 24 horas)

TLE

ActualizadoSource: Space-Track

Época: Sep 14, 2026, 14:00 UTC

1 57289U 23095B   26257.58340791  .00000053  00000-0  70967-4 0  9990
2 57289  86.5075 333.8636 0014559 302.3868  57.5866 13.39555582155723

Sigue XINGWANG JISHU SW 01-02 en tiempo real con AllMySat

Download on the App Store